Tracking 19846 objects as of 19-Sep-2019
HD Live streaming from Space Station
objects crossing your sky now

NAVSTAR 78 (USA 293)

Track NAVSTAR 78 (USA 293) now!
NAVSTAR 78 (USA 293) is classified as:


NORAD ID: 44506
Int'l Code: 2019-056A
Perigee: 20,191.5 km
Apogee: 20,200.5 km
Inclination: 55.0 °
Period: 718.2 minutes
Semi major axis: 26567 km
RCS: Unknown
Launch date: August 22, 2019
Source: United States (US)
Launch site: AIR FORCE EASTERN TEST RANGE (AFETR)
PRN:
aabbcc
Your satellite tracking list
Your tracking list is empty




NASA's NSSDC Master Catalog

Two Line Element Set (TLE):
1 44506U 19056A   19262.06901156 -.00000010  00000-0  00000+0 0  9999
2 44506  55.0389  69.2229 0001699 107.0415 253.0059  2.00488058   676
Source of the keplerian elements: AFSPC